Regional Weather Roundup
Issued by NWS Little Rock, AR

Home | Current Version | Previous Version | Text Only | Print | Product List | Glossary Off
Versions: 1 2 3 4 5 6 7 8 9 10 11 12 13 14 15 16 17 18 19 20 21 22 23 24 25 26 27 28 29 30 31 32 33 34 35 36 37 38 39 40 41 42 43 44 45 46 47 48 49 50

000
ASUS44 KLZK 242205
RWRLZK

WEATHER ROUNDUP FOR ARKANSAS
NATIONAL WEATHER SERVICE LITTLE ROCK AR
400 PM CST MON NOV 24 2014

NOTE: "FAIR" INDICATES FEW OR NO CLOUDS BELOW 12,000 FEET WITH NO
SIGNIFICANT WEATHER AND/OR OBSTRUCTIONS TO VISIBILITY.

ARZ001-003-010-029-242300-
NORTHWEST ARKANSAS

CITY           SKY/WX    TMP DP  RH WIND       PRES   REMARKS
FAYETTEVILLE   SUNNY     50  25  37 W13G26    29.92R
FORT SMITH     SUNNY     57  22  25 W21G30    29.94R
HARRISON       CLEAR     50  24  36 W12G23    29.88R
BENTONVILLE    SUNNY     50  25  37 W14G22    29.92R
ROGERS         MOSUNNY   50  25  37 W16G23    29.91R
SILOAM SPGS    SUNNY     52  25  35 W20G25    29.93R
HIGHFILL       MOSUNNY   51  26  37 W20G26    29.90R
SPRINGDALE     MOSUNNY   50  25  37 W14G23    29.93R
$$

ARZ004-005-016-242300-
NORTH CENTRAL ARKANSAS

CITY           SKY/WX    TMP DP  RH WIND       PRES   REMARKS
BATESVILLE     CLEAR     55  28  35 SW13G22   29.88R
FLIPPIN        CLEAR     54  25  32 W14G20    29.88R
MTN HOME       CLEAR     52  24  33 VRB7G17   29.86R
$$

ARZ040-041-242300-
WEST CENTRAL ARKANSAS

CITY           SKY/WX    TMP DP  RH WIND       PRES   REMARKS
MENA           SUNNY     59  21  23 W14G21    29.97R
MOUNT IDA      SUNNY     59  21  23 NW9       29.94R
$$

ARZ009-017-025-026-028-242300-
NORTHEAST ARKANSAS

CITY           SKY/WX    TMP DP  RH WIND       PRES   REMARKS
CORNING        FAIR      54  32  43 W13       29.87R
JONESBORO      CLEAR     55  34  45 SW15      29.88R
NEWPORT        CLEAR     56  32  40 SW15      29.90R
WALNUT RIDGE   CLEAR     55  25  30 W12G21    29.86R
BLYTHEVILLE    CLEAR     63  33  32 SW9G20    29.89R
NW BLYTHEVILLE CLEAR     55  34  44 SW10G21   29.88R
$$

ARZ022-023-033-042-044-242300-
CENTRAL ARKANSAS

CITY           SKY/WX    TMP DP  RH WIND       PRES   REMARKS
LITTLE ROCK    PTCLDY    59  20  22 W13G22    29.95R
N LITTLE ROCK  PTCLDY    57  28  32 W8G18     29.95R
JACKSONVILLE   CLEAR     58  25  27 W12       29.93R
SEARCY         CLEAR     58  23  26 W9G23     29.93R
HOT SPRINGS    SUNNY     58  20  22 NW10G20   29.97R
RUSSELLVILLE   SUNNY     57  22  25 W9G23     29.93R
CLINTON        FAIR      55  28  35 SW7       29.92R
$$

ARZ036-242300-
EAST ARKANSAS

CITY           SKY/WX    TMP DP  RH WIND       PRES   REMARKS
WEST MEMPHIS   CLEAR     54  33  45 W10       29.92R
$$

ARZ050-053-066-070-073-242300-
SOUTHWEST ARKANSAS

CITY           SKY/WX    TMP DP  RH WIND       PRES   REMARKS
ARKADELPHIA    FAIR      58  33  38 SW12      29.98R
CAMDEN         SUNNY     61  25  25 E8        29.99R
TEXARKANA      SUNNY     60  22  23 W9        30.01R
EL DORADO      MOSUNNY   58  30  34 W8        30.01R
DE QUEEN       SUNNY     60  24  25 W8        29.98R
$$

ARZ056-057-069-242300-
SOUTHEAST ARKANSAS

CITY           SKY/WX    TMP DP  RH WIND       PRES   REMARKS
PINE BLUFF     CLEAR     57  29  34 SW9       29.96R
STUTTGART      CLEAR     57  30  35 W15       29.95R
MONTICELLO     MOSUNNY   57  30  35 W8        29.98R

$$





USA.gov is the U.S. government's official web portal to all federal, state and local government web resources and services.